Other Surface Observations
Issued by NWS

Home | Current Version | Previous Version | Text Only | Print | Product List | Glossary On
Versions: 1 2 3 4 5 6 7 8 9 10 11 12 13 14 15 16 17 18 19 20 21 22 23 24 25 26 27 28 29 30 31 32 33 34 35 36 37 38 39 40 41 42 43 44 45 46 47 48 49 50
000
SXUS52 KTAE 241318
OSOTAE
OSOTAE
North Florida/South Alabama/Southwest Georgia Weather Roundup
National Weather Service Tallahassee Florida
900 AM EDT WED AUG 24 2016

Note: "fair" indicates few or no clouds below 12,000 feet with no
significant weather and/or obstructions to visibility.

!FLZ017-115-028-034-025-241400
...North Florida...

CITY           SKY/WX    TMP DP  RH WIND       PRES   REMARKS
TALLAHASSEE    MOSUNNY   82  78  88 NE7       30.19R HX  91
APALACHICOLA   PTSUNNY   81  80  97 NE6       30.15S HX  91
PERRY          PTSUNNY   78  77  96 NE5       30.19R
CROSS CITY     SUNNY     81  77  89 NE5       30.17R
JACKSONVILLE   MOSUNNY   84  75  74 NE9       30.19R HX  92
$$

!FLZ112-006-005-002-011-241400
...Florida Panhandle...

CITY           SKY/WX    TMP DP  RH WIND       PRES   REMARKS
MARIANNA       CLOUDY    77  76  96 E6        30.19S
BONIFAY        PTSUNNY   78  76  93 NE3       30.21R
PANAMA CITY NW FAIR      78  75  90 NE8       30.17R
TYNDALL AFB    MOSUNNY   79  75  89 NE6       30.18R
TYND DRONE APT PTSUNNY   78  76  96 NE9       30.17S
DE FUNIAK SPR  FAIR      78  75  90 E5        30.20S
EGLIN AFB      MOSUNNY   79  74  83 NE7       30.18R
DESTIN         SUNNY     83  77  82 E8        30.17R HX  92
HURLBURT       SUNNY     80  75  84 E7        30.16R
CRESTVIEW      SUNNY     77  74  90 E3        30.20R
PENSACOLA      SUNNY     82  77  84 NE8       30.16S HX  90
$$

!ALZ063-066-241400
...South Alabama...

CITY           SKY/WX    TMP DP  RH WIND       PRES   REMARKS
DOTHAN         CLOUDY    76  76 100 E7        30.25S
OZARK CAIRNS   MOSUNNY   76  76 100 E6        30.21R
FT RUCKER HELI PTSUNNY   77  74  90 CALM      30.20R
RUCKER HELI 3  NOT AVBL
RUCKER HELI 2  CLOUDY    78  75  90 E6        30.21R
FLORALA APT    MOSUNNY   77  74  90 E5        30.22R
ANDALUSIA      SUNNY     82  74  76 E7        30.21R
TROY           PTSUNNY   77  75  93 E3        30.24R
EUFALA         CLOUDY    80  76  87 E3        30.23R
MOBILE         PTSUNNY   82  76  81 NE7       30.18R
$$

!GAZ120>161-241400
...Southwest and South Central Georgia...

CITY           SKY/WX    TMP DP  RH WIND       PRES   REMARKS
THOMASVILLE      N/A     79  79 100 CALM      30.23R
BAINBRIDGE     CLOUDY    79  75  89 CALM      30.22R
MOODY AFB      SUNNY     77  76  96 NE5       30.21S
VALDOSTA       SUNNY     79  78  97 NE5       30.21R
MOULTRIE       PTSUNNY   77  75  94 E3        30.23S
BLAKELY        CLOUDY    79  75  89 E5          N/A
ALBANY         MOSUNNY   79  75  87 E6        30.25R
TIFTON         FAIR      77  77 100 E7        30.23S
FITZGERALD     CLOUDY    80  79  95 E3        30.27S
CORDELE        FAIR      81  76  87 E5        30.26R
AMERICUS       PTSUNNY   75  75 100 CALM      30.27R
HOMERVILLE     FAIR      79  77  94 NE3       30.22S
$$

!GMZ750-755-770-775-241400
...Coastal and Buoy Obs...

STATION/POSITION TIME  TEMP    WIND        PRES    VSBY  WAVE
                       AIR SEA DIR/SP/G                  HT/PER
                 (UTC) (F)     (DEG/KT/KT) (MB)    (MI)  (FT/S)
KEATON BEACH     1300   80      50/  6/  8 1021.3R
CEDAR KEY        1300   80      60/ 14/ 15 1021.3S
C TOWER          1300   84      90/ 15/ 16 1021.4R
APALACHICOLA BUO 1250   86 87   90/ 12/ 14 1020.0R         3/ 5
PANAMA CITY BUOY 1250   86 87  110/  8/  8 1020.5R         2/ 4
MOBILE BUOY      1300   85 89  320/  6/  8 1020.3F
ORANGE BCH AL BU 1250   85 87  140/  6/ 12 1021.0R         1
$$




USA.gov is the U.S. government's official web portal to all federal, state and local government web resources and services.